Weather History for Lucknow, India

Change the Weather History Date:

Thursday, January 24, 2013

  Actual Average Record
Temperature  
Mean Temperature 50 °F -  
Max Temperature 62 °F 73 °F 78 °F (2011)
Min Temperature 37 °F 53 °F 37 °F (2013)
Degree Days  
Heating Degree Days 16    
Moisture  
Dew Point 48 °F    
Average Humidity 89    
Maximum Humidity 100    
Minimum Humidity 61    
Precipitation  
Precipitation 0.00 in - - ()
Sea Level Pressure  
Sea Level Pressure 30.11 in    
Wind  
Wind Speed 2 mph ()    
Max Wind Speed 5 mph    
Max Gust Speed -    
Visibility 0.6 miles    
Events Fog    
Averages and records for this station are not official NWS values.
T = Trace of Precipitation, MM = Missing Value Source: Averaged Metar Reports

Daily Weather History Graph

Daily Weather History Graph

Search for Another Location

Airport:

Trip Planner

Search our weather history database for the weather conditions in past years. The results will help you decide how hot, cold, wet, or windy it might be!

Date:

Astronomy

Jan. 24, 2013 Rise Set
Actual Time 6:54 AM IST 5:42 PM IST
Civil Twilight 6:30 AM IST 6:06 PM IST
Nautical Twilight 6:02 AM IST 6:35 PM IST
Astronomical Twilight 5:34 AM IST 7:02 PM IST
Moon 3:23 PM IST (1/24) 4:27 AM IST (1/24)
Length of Visible Light 11h 36m
Length of Day
10h 47m
Waxing Gibbous, 92% of the Moon is Illuminated
Jan 24
Waxing Gibbous
Jan 27
Full
Feb 3
Last Quarter
Feb 10
New
Feb 18
First Quarter

Hourly Weather History & Observations

Time (IST) Temp. Windchill Dew Point Humidity Pressure Visibility Wind Dir Wind Speed Gust Speed Precip Events Conditions
12:00 AM 44.6 °F - 44.6 °F 100% 30.12 in 0.0 mi Calm Calm - N/A Fog Fog
1:00 AM 44.6 °F - 44.6 °F 100% 30.09 in - Variable 2.3 mph - N/A Fog Fog
2:00 AM 44.6 °F 43.1 °F 44.6 °F 100% 30.09 in - NW 3.5 mph - N/A Fog Fog
2:30 AM 45 °F - 45 °F 100% 30.13 in 0 mi NW 3.5 mph - - Fog Heavy Fog
3:00 AM 44.6 °F 43.1 °F 44.6 °F 100% 30.09 in - NW 3.5 mph - N/A Fog Fog
4:00 AM 44.6 °F - 44.6 °F 100% 30.09 in - Calm Calm - N/A Fog Fog
5:00 AM 46.4 °F - 46.4 °F 100% 30.09 in - Calm Calm - N/A Fog Fog
5:30 AM 48 °F - 47 °F 96% 30.14 in 0 mi Calm Calm - - Fog Heavy Fog
5:30 AM 48.2 °F - 46.4 °F 93% 30.09 in - Calm Calm - N/A   Unknown
6:00 AM 48.2 °F - 46.4 °F 93% 30.09 in - Calm Calm - N/A Fog Fog
6:30 AM 48.2 °F - 46.4 °F 93% 30.12 in - Calm Calm - N/A Fog Fog
7:00 AM 48.2 °F - 48.2 °F 100% 30.12 in 0.0 mi Calm Calm - N/A Fog Fog
7:30 AM 48.2 °F - 48.2 °F 100% 30.12 in 0.0 mi Calm Calm - N/A Fog Fog
8:00 AM 48.2 °F - 48.2 °F 100% 30.15 in 0.0 mi Calm Calm - N/A Fog Fog
8:30 AM 49 °F - 48 °F 94% 30.19 in 0 mi Calm Calm - - Fog Heavy Fog
8:30 AM 48.2 °F - 48.2 °F 100% 30.15 in 0.1 mi Calm Calm - N/A Fog Fog
10:00 AM 50.0 °F - 50.0 °F 100% 30.18 in 0.5 mi Variable 2.3 mph - N/A Fog Fog
10:30 AM 50.0 °F - 50.0 °F 100% 30.18 in 0.5 mi WNW 3.5 mph - N/A Fog Fog
11:00 AM 50.0 °F - 50.0 °F 100% 30.18 in 0.6 mi Variable 2.3 mph - N/A Fog Fog
11:30 AM 51 °F - 49 °F 88% 30.20 in 0 mi WNW 3.5 mph - - Fog Heavy Fog
11:30 AM 51.8 °F - 48.2 °F 88% 30.15 in 0.6 mi WNW 3.5 mph - N/A Fog Fog
12:00 PM 51.8 °F - 50.0 °F 94% 30.15 in 0.7 mi WNW 4.6 mph - N/A Fog Shallow Fog
12:30 PM 53.6 °F - 50.0 °F 88% 30.15 in 0.8 mi WNW 3.5 mph - N/A   Mostly Cloudy
1:30 PM 55.4 °F - 50.0 °F 82% 30.09 in 1.2 mi WNW 4.6 mph - N/A   Mostly Cloudy
2:00 PM 57.2 °F - 50.0 °F 77% 30.09 in 1.2 mi Variable 2.3 mph - N/A   Mostly Cloudy
2:30 PM 60 °F - 50 °F 61% 30.10 in 1 mi 2.3 mph - -   Haze
2:30 PM 59.0 °F - 50.0 °F 72% 30.06 in 1.6 mi Variable 2.3 mph - N/A   Haze
3:00 PM 60.8 °F - 50.0 °F 68% 30.06 in 1.6 mi WSW 4.6 mph - N/A   Haze
3:30 PM 60.8 °F - 50.0 °F 68% 30.06 in 1.6 mi WNW 4.6 mph - N/A   Haze
4:00 PM 60.8 °F - 50.0 °F 68% 30.06 in 1.6 mi WNW 4.6 mph - N/A   Haze
4:30 PM 60.8 °F - 50.0 °F 68% 30.06 in 1.6 mi WNW 3.5 mph - N/A   Haze
5:00 PM 59.0 °F - 50.0 °F 72% 30.04 in 1.2 mi West 4.6 mph - N/A   Haze
5:30 PM 59 °F - 53 °F 73% 30.09 in 1 mi NW 3.5 mph - -   Mist
5:30 PM 59.0 °F - 51.8 °F 77% 30.04 in 1.2 mi NW 3.5 mph - N/A   Mist
7:00 PM 53.6 °F - 50.0 °F 88% 30.06 in 0.4 mi Calm Calm - N/A Fog Fog
8:00 PM 53.6 °F - 50.0 °F 88% 30.06 in 0.2 mi Calm Calm - N/A Fog Fog
8:30 PM 48 °F - 46 °F 89% 30.12 in 0 mi 2.3 mph - - Fog Partial Fog
9:00 PM 46.4 °F - 44.6 °F 93% 30.09 in 0.0 mi Calm Calm - N/A Fog Fog
11:00 PM 44.6 °F - 44.6 °F 100% 30.09 in 0.0 mi Calm Calm - N/A Fog Fog